Content
SEND FEEDBACK

Daily
Averages
Monthly
Summary
Canada

MONTREAL, QUEBEC


Home > North America > Canada > Quebec
Elevation: 35 meters     Latitude: 45 28N     Longitude: 073 45W

WEATHER
 
SELECT A DAY
Number of Records: 203,439;   Date Range: 1/1/95 - 12/20/14
 
SHARE

PRINT THIS DATA

[ ← Previous Day ]
WEATHER ALMANAC - 3 MAY, 2013
[ Next Day → ]
[ °F ]   °C
Weather ElementAverageHighLow
Temperature16.3 °C22 °C (3:00 pm)9 °C (5:00 am)
Dewpoint3.1 °C7 °C (1:00 am)1 °C (8:00 am)
Humidity43.7 %82 % (5:00 am)17 % (8:00 pm)
Barometer1029.5 hPa1032.2 hPa (7:00 am)1026.8 hPa (7:00 pm)
Wind Speed17.9 km/h29.6 km/h (1:00 am)
Wind Gust40.7 km/h (1:00 am)
Weather ElementAverage
Visibility39.9 km
Wind DirectionENE (81.5 °)

Weather ElementTotal
Precipitation---
Heating Degree Days2.8 (Base 18.3)
Growing Degree Days5.5 (Base 10)
Averaged from 27 records on 3 May, 2013
WEATHER CONDITIONS BREAKOUT
WIND DIRECTION BREAKOUT
WEATHER BY HOUR - 3 MAY, 2013
[ °F ]   °C
Local TimeTemperatureDewpointHumidityBarometerVisibilityWind DirectionWind SpeedGust SpeedPrecipitationEventsConditions
1:00 AM12 °C7 °C72 %1028.8 hPa24.1 kmNNE (30°)29.6 km/h40.7 km/hClear
2:00 AM10.6 °C6.7 °C69 %1029.1 hPa24.1 kmNNE (30°)27.8 km/h
2:00 AM11 °C7 °C76 %1029.1 hPa24.1 kmNNE (30°)25.9 km/h38.9 km/hClear
3:00 AM10 °C6 °C76 %1029.5 hPa24.1 kmNE (40°)20.4 km/hClear
4:00 AM10 °C6 °C76 %1030.1 hPa24.1 kmNNE (30°)24.1 km/hClear
5:00 AM9 °C6 °C82 %1030.8 hPa24.1 kmNNE (30°)16.7 km/hClear
6:00 AM10 °C5 °C71 %1031.5 hPa48.3 kmENE (60°)14.8 km/hPartly Cloudy
7:00 AM13 °C2 °C47 %1032.2 hPa48.3 kmEast (80°)11.1 km/hPartly Cloudy
8:00 AM13.3 °C1.1 °C31 %1032.2 hPa45.1 kmESE (120°)22.2 km/hClear
8:00 AM13 °C1 °C44 %1032.2 hPa48.3 kmESE (110°)24.1 km/hPartly Cloudy
9:00 AM15 °C2 °C42 %1032.2 hPa48.3 kmSE (130°)22.2 km/hClear
10:00 AM16 °C2 °C39 %1032.2 hPa48.3 kmESE (120°)22.2 km/h31.5 km/hClear
11:00 AM18 °C2 °C34 %1031.8 hPa48.3 kmESE (110°)20.4 km/h35.2 km/hClear
12:00 PM18 °C2 °C34 %1030.8 hPa48.3 kmENE (60°)14.8 km/h33.3 km/hClear
1:00 PM19 °C2 °C32 %1030.1 hPa48.3 kmEast (100°)16.7 km/h29.6 km/hClear
2:00 PM21.1 °C2.2 °C18 %1029.5 hPa45.1 kmSE (140°)16.7 km/hClear
2:00 PM21 °C2 °C28 %1029.5 hPa48.3 kmESE (110°)11.1 km/hClear
3:00 PM22 °C1 °C25 %1028.8 hPa48.3 kmEast (80°)16.7 km/h29.6 km/hClear
4:00 PM22 °C1 °C25 %1027.8 hPa48.3 kmESE (110°)16.7 km/h29.6 km/hClear
5:00 PM22 °C1 °C25 %1027.4 hPa48.3 kmESE (120°)16.7 km/hPartly Cloudy
6:00 PM22 °C1 °C25 %1027.1 hPa48.3 kmESE (110°)14.8 km/h27.8 km/hPartly Cloudy
7:00 PM22 °C1 °C25 %1026.8 hPa48.3 kmESE (110°)13 km/hPartly Cloudy
8:00 PM20.6 °C1.7 °C17 %1026.8 hPa45.1 kmEast (100°)9.3 km/hClear
8:00 PM20 °C1 °C28 %1026.8 hPa48.3 kmEast (100°)7.4 km/hPartly Cloudy
9:00 PM17 °C5 °C45 %1027.1 hPa24.1 kmNE (40°)16.7 km/hClear
10:00 PM17 °C5 °C45 %1026.8 hPa24.1 kmNE (50°)16.7 km/hClear
11:00 PM16 °C5 °C48 %1026.8 hPa24.1 kmNE (50°)14.8 km/hClear
Hourly data recorded from CYUL, located 0 kilometers away from Montreal, Quebec







STORIES FROM OUR PARTNERS